Miscellaneous Local Product
Issued by NWS Hastings, NE

Home | Current Version | Previous Version | Graphics & Text | Print | Product List | Glossary On
Versions: 1 2 3 4 5 6 7 8 9 10 11 12 13 14 15 16 17 18 19 20 21 22 23 24 25 26 27 28 29 30 31 32 33 34 35 36 37 38 39 40 41 42 43 44 45 46 47 48 49 50
000
AXUS43 KGID 011202
MISGRI

GID CWA HOURLY WEATHER ROUNDUP
NATIONAL WEATHER SERVICE HASTINGS NE
700 AM CDT MON JUN 01 2015

NOTE: "FAIR" INDICATES FEW OR NO CLOUDS BELOW 12,000 FEET WITH NO
SIGNIFICANT WEATHER AND/OR OBSTRUCTIONS TO VISIBILITY.

...SOUTH CENTRAL NEBRASKA...

CITY           SKY/WX    TMP DP  RH WIND       PRES   REMARKS
GRAND ISLAND   PTCLDY    57  52  83 SE9       30.13R
HASTINGS       PTCLDY    56  52  86 SE7       30.12R
KEARNEY        PTCLDY    55  52  88 SE13      30.11R
ORD            PTCLDY    54  50  86 SE8       30.09R
YORK           CLOUDY    57  52  82 SE6       30.14R
AURORA         CLOUDY    58  53  84 S9        30.13R
LEXINGTON      PTCLDY    57  55  91 SE9       30.08R
HOLDREGE       PTCLDY    55  52  92 SE7       30.09R
HEBRON         PTCLDY    55  51  86 S3        30.14R

...NEBRASKA PANHANDLE...

CITY           SKY/WX    TMP DP  RH WIND       PRES   REMARKS
CHADRON        CLEAR     50  49  96 CALM      29.99R
ALLIANCE       CLOUDY    55  55 100 S9        30.03R FOG
SCOTTSBLUFF    FOG       56  56 100 SE10      30.02R VSB<1/4
SIDNEY         CLEAR     50  48  93 CALM      30.06S

...WESTERN AND NORTH CENTRAL NEBRASKA...

CITY           SKY/WX    TMP DP  RH WIND       PRES   REMARKS
VALENTINE      PTCLDY    56  53  90 S5        30.04R
AINSWORTH      PTCLDY    55  52  90 S17       30.04S
ONEILL         CLOUDY    56  48  74 S15G21    30.09R
BROKEN BOW     PTCLDY    54  51  90 SE7       30.08R
IMPERIAL       CLEAR     53  52  96 SE8       30.04R
NORTH PLATTE   PTCLDY    57  54  89 S8        30.07R
MCCOOK         CLOUDY    56  54  93 E7        30.06R

...EASTERN NEBRASKA...

CITY           SKY/WX    TMP DP  RH WIND       PRES   REMARKS
NORFOLK        CLEAR     56  45  66 SE6       30.13R
SO SIOUX CITY  MOSUNNY   52  46  80 SE6       30.17R
TEKAMAH        CLOUDY    54  49  83 CALM      30.16S
COLUMBUS       MOCLDY    54  45  71 E5        30.15F
ALBION         PTCLDY    55  46  73 SE8       30.12R
OMAHA EPPLEY   PTSUNNY   57  53  86 E5        30.17R
OFFUTT AFB     CLOUDY    56  53  89 CALM      30.16R
MILLARD        CLOUDY    56  53  87 CALM      30.16R
LINCOLN        CLOUDY    56  49  77 CALM      30.16R
NEBRASKA CITY  MOSUNNY   55  54  96 SE3       30.16R
BEATRICE       PTCLDY    53  49  88 CALM      30.15R
FALLS CITY     MOSUNNY   56  53  90 CALM      30.15S

...NORTHERN KANSAS...

CITY           SKY/WX    TMP DP  RH WIND       PRES   REMARKS
GOODLAND       MOCLDY    57  52  83 W8        30.04R
HILL CITY      PTCLDY    57  54  89 SE7       30.08R
NORTON         SUNNY     55  52  88 SE10      30.07S
PHILLIPSBURG   MOCLDY    61  61 100 E7        30.09R
SMITH CENTER   PTCLDY    55  55 100 E12       30.11S
HAYS           MOCLDY    57  52  82 SE9       30.09R
RUSSELL        MOCLDY    59  57  93 SE14      30.09R
CONCORDIA      MOCLDY    58  53  84 S10       30.12F
SALINA         CLOUDY    59  56  89 SE7       30.13R
TOPEKA         MOCLDY    58  55  90 E5        30.15R



USA.gov is the U.S. government's official web portal to all federal, state and local government web resources and services.